FW4070 Weather Reports


Display with metric or nautical units.
time (UTC)temp
F
wind
direction
speed
MPH
gust
MPH
rain 1hr
in
rain 24hr
in
rain mn
in
humidity
%
barometer
mb
20260906182526 72 348 3.0 11.0 0.00 0.00 0.00 73 1017.8
20260906182032 72 351 3.0 13.0 0.00 0.00 0.00 72 1017.7
20260906181542 72 342 6.0 13.0 0.00 0.00 0.00 71 1017.7
20260906181048 72 333 3.0 8.0 0.00 0.00 0.00 72 1017.8
20260906180558 72 360 2.0 9.0 0.00 0.00 0.00 72 1017.9
20260906180004 72 355 2.0 9.0 0.00 0.00 0.00 72 1017.9
20260906175515 71 355 2.0 12.0 0.00 0.00 0.00 73 1017.9
20260906175003 71 5 6.0 12.0 0.00 0.00 0.00 72 1017.9
20260906174552 72 28 3.0 10.0 0.00 0.00 0.00 72 1017.9
20260906174100 72 348 4.0 11.0 0.00 0.00 0.00 72 1018.0
20260906173505 71 355 5.0 11.0 0.00 0.00 0.00 72 1017.9
20260906173022 72 338 4.0 11.0 0.00 0.00 0.00 71 1018.0
20260906172558 72 360 4.0 11.0 0.00 0.00 0.00 70 1018.1
20260906172004 71 336 1.0 12.0 0.00 0.00 0.00 72 1018.0
20260906171518 71 360 4.0 12.0 0.00 0.00 0.00 71 1018.1
20260906171026 71 360 3.0 10.0 0.00 0.00 0.00 72 1018.2
20260906170530 71 343 5.0 10.0 0.00 0.00 0.00 72 1018.1
20260906170049 71 5 2.0 6.0 0.00 0.00 0.00 73 1018.0
20260906165526 71 345 1.0 10.0 0.00 0.00 0.00 74 1018.0
20260906165031 71 9 3.0 10.0 0.00 0.00 0.00 73 1018.1
20260906164544 71 339 4.0 9.0 0.00 0.00 0.00 75 1018.0
20260906164026 71 323 1.0 9.0 0.00 0.00 0.00 76 1017.9
20260906163532 71 332 3.0 14.0 0.00 0.00 0.00 75 1018.0
20260906163045 70 55 2.0 14.0 0.00 0.00 0.00 77 1018.1
20260906162518 70 340 3.0 12.0 0.00 0.00 0.00 76 1018.1
20260906162033 70 360 6.0 13.0 0.00 0.00 0.00 75 1018.1
20260906161540 71 17 5.0 13.0 0.00 0.00 0.00 78 1018.1
20260906161049 70 71 2.0 11.0 0.00 0.00 0.00 78 1018.1
20260906160559 70 335 4.0 11.0 0.00 0.00 0.00 77 1018.2
20260906160502 70 360 3.0 10.0 0.00 0.00 0.00 76 1018.3
20260906160001 70 337 2.0 10.0 0.00 0.00 0.00 78 1018.3
20260906155513 70 360 3.0 11.0 0.00 0.00 0.00 79 1018.3
20260906155015 70 335 3.0 11.0 0.00 0.00 0.00 79 1018.3
20260906154603 70 351 0.0 3.0 0.00 0.00 0.00 80 1018.2
20260906154501 70 32 0.0 3.0 0.00 0.00 0.00 80 1018.2
20260906154047 69 32 2.0 8.0 0.00 0.00 0.00 79 1018.2
20260906153533 69 360 2.0 11.0 0.00 0.00 0.00 79 1018.2
20260906153046 70 336 2.0 11.0 0.00 0.00 0.00 80 1018.2
20260906152550 70 9 4.0 10.0 0.00 0.00 0.00 79 1018.2
20260906152011 70 35 1.0 6.0 0.00 0.00 0.00 83 1018.0
20260906151552 69 321 1.0 8.0 0.00 0.00 0.00 82 1018.1
20260906151055 69 360 3.0 9.0 0.00 0.00 0.00 81 1018.1
20260906150540 69 331 2.0 9.0 0.00 0.00 0.00 82 1018.0
20260906150056 69 360 2.0 9.0 0.00 0.00 0.00 81 1018.0
20260906145549 69 35 2.0 11.0 0.00 0.00 0.00 81 1018.0
20260906145057 69 342 3.0 11.0 0.00 0.00 0.00 81 1017.9
20260906144619 70 321 2.0 11.0 0.00 0.00 0.00 80 1017.8
20260906144501 70 320 2.0 11.0 0.00 0.00 0.00 80 1017.8
20260906144018 70 336 3.0 8.0 0.00 0.00 0.00 80 1017.7
20260906143517 70 332 3.0 8.0 0.00 0.00 0.00 77 1017.6
20260906143036 70 94 1.0 5.0 0.00 0.00 0.00 79 1017.5
20260906142540 70 146 1.0 8.0 0.00 0.00 0.00 78 1017.5
20260906142045 70 148 2.0 8.0 0.00 0.00 0.00 78 1017.5
20260906141554 70 14 0.0 4.0 0.00 0.00 0.00 79 1017.5
20260906141102 69 57 2.0 4.0 0.00 0.00 0.00 79 1017.5
20260906140509 69 42 1.0 4.0 0.00 0.00 0.00 81 1017.5
20260906140055 69 323 1.0 4.0 0.00 0.00 0.00 81 1017.4
20260906135600 69 333 0.0 3.0 0.00 0.00 0.00 80 1017.4
20260906135008 69 327 1.0 6.0 0.00 0.00 0.00 80 1017.3
20260906134521 69 123 1.0 7.0 0.00 0.00 0.00 79 1017.2
20260906134025 68 123 1.0 5.0 0.00 0.00 0.00 79 1017.2
20260906133530 68 360 1.0 4.0 0.00 0.00 0.00 79 1017.4
20260906133031 68 338 1.0 3.0 0.00 0.00 0.00 78 1017.4
20260906132540 68 118 0.0 4.0 0.00 0.00 0.00 79 1017.3
20260906132051 68 119 0.0 4.0 0.00 0.00 0.00 81 1017.2
20260906131557 67 84 0.0 2.0 0.00 0.00 0.00 82 1017.3
20260906131004 66 87 0.0 3.0 0.00 0.00 0.00 83 1017.2
20260906130550 66 5 1.0 3.0 0.00 0.00 0.00 84 1017.2
20260906130056 65 326 0.0 4.0 0.00 0.00 0.00 86 1017.2
20260906125505 64 340 0.0 4.0 0.00 0.00 0.00 87 1017.2
20260906125108 64 114 0.0 1.0 0.00 0.00 0.00 88 1017.2
20260906124546 63 115 0.0 2.0 0.00 0.00 0.00 89 1017.2
20260906124056 63 114 0.0 1.0 0.00 0.00 0.00 90 1017.1
20260906123503 62 115 0.0 1.0 0.00 0.00 0.00 90 1017.0
20260906123010 62 115 0.0 1.0 0.00 0.00 0.00 90 1017.0
20260906122549 62 114 0.0 1.0 0.00 0.00 0.00 90 1017.0
20260906122057 61 114 0.0 0.0 0.00 0.00 0.00 90 1016.9
20260906121511 61 114 0.0 0.0 0.00 0.00 0.00 90 1016.9
20260906121017 61 114 0.0 2.0 0.00 0.00 0.00 91 1016.9
20260906120515 60 114 0.0 3.0 0.00 0.00 0.00 91 1016.8
20260906120029 60 115 1.0 3.0 0.00 0.00 0.00 92 1016.7
20260906115539 59 117 1.0 3.0 0.00 0.00 0.00 93 1016.6
20260906115047 59 118 0.0 3.0 0.00 0.00 0.00 92 1016.6
20260906114552 58 117 0.0 2.0 0.00 0.00 0.00 92 1016.6
20260906114100 58 117 0.0 2.0 0.00 0.00 0.00 92 1016.6
20260906113555 58 117 0.0 1.0 0.00 0.00 0.00 92 1016.6
20260906113104 58 117 0.0 0.0 0.00 0.00 0.00 92 1016.5
20260906112506 58 117 0.0 0.0 0.00 0.00 0.00 92 1016.5
20260906112023 58 117 0.0 1.0 0.00 0.00 0.00 92 1016.6
20260906111508 58 117 0.0 1.0 0.00 0.00 0.00 92 1016.5
20260906111011 58 117 0.0 1.0 0.00 0.00 0.00 92 1016.5
20260906110555 58 117 0.0 1.0 0.00 0.00 0.00 92 1016.5
20260906110031 58 117 0.0 1.0 0.00 0.00 0.00 92 1016.4
20260906105527 58 117 0.0 1.0 0.00 0.00 0.00 92 1016.4
20260906105032 58 117 0.0 1.0 0.00 0.00 0.00 92 1016.3
20260906104537 58 117 0.0 1.0 0.00 0.00 0.00 91 1016.2
20260906104047 58 117 0.0 1.0 0.00 0.00 0.00 92 1016.1
20260906103532 58 117 0.0 1.0 0.00 0.00 0.00 92 1016.1
20260906103035 58 117 0.0 2.0 0.00 0.00 0.00 92 1016.1
20260906102521 58 117 1.0 2.0 0.00 0.00 0.00 92 1016.1
20260906102059 58 117 0.0 2.0 0.00 0.00 0.00 92 1016.0
20260906101507 59 117 0.0 2.0 0.00 0.00 0.00 91 1016.0
20260906101100 59 117 0.0 2.0 0.00 0.00 0.00 91 1016.0
20260906100524 59 117 0.0 2.0 0.00 0.00 0.00 91 1016.0
20260906100015 59 117 0.0 2.0 0.00 0.00 0.00 92 1015.8
20260906095532 59 117 0.0 2.0 0.00 0.00 0.00 91 1015.8
20260906095011 59 117 0.0 2.0 0.00 0.00 0.00 92 1015.8
20260906094531 59 117 1.0 2.0 0.00 0.00 0.00 92 1015.8
20260906094023 59 117 1.0 2.0 0.00 0.00 0.00 92 1015.8
20260906093531 59 117 1.0 2.0 0.00 0.00 0.00 92 1015.8
20260906093040 59 117 0.0 2.0 0.00 0.00 0.00 92 1015.8
20260906092531 58 117 0.0 0.0 0.00 0.00 0.00 92 1015.7
20260906092039 58 117 0.0 0.0 0.00 0.00 0.00 92 1015.7
20260906091546 58 117 0.0 0.0 0.00 0.00 0.00 92 1015.6
20260906091055 58 117 0.0 0.0 0.00 0.00 0.00 92 1015.5
20260906090502 58 117 0.0 1.0 0.00 0.00 0.00 92 1015.5
20260906090001 58 117 0.0 2.0 0.00 0.00 0.00 92 1015.4
20260906085551 58 117 0.0 2.0 0.00 0.00 0.00 92 1015.3
20260906085056 58 116 0.0 0.0 0.00 0.00 0.00 91 1015.4
20260906084559 58 117 0.0 0.0 0.00 0.00 0.00 91 1015.4
20260906084501 58 117 0.0 0.0 0.00 0.00 0.00 91 1015.4
20260906084019 58 116 0.0 0.0 0.00 0.00 0.00 91 1015.3
20260906083523 58 117 0.0 0.0 0.00 0.00 0.00 91 1015.2
20260906083033 58 117 0.0 0.0 0.00 0.00 0.00 91 1015.2
20260906082532 58 117 0.0 0.0 0.00 0.00 0.00 90 1015.1
20260906082046 58 117 0.0 1.0 0.00 0.00 0.00 90 1015.1
20260906081555 58 117 0.0 2.0 0.00 0.00 0.00 90 1015.1
20260906081003 59 117 0.0 1.0 0.00 0.00 0.00 90 1015.1
20260906080521 59 117 0.0 2.0 0.00 0.00 0.00 90 1015.1
20260906080057 59 117 0.0 2.0 0.00 0.00 0.00 90 1015.2
20260906075504 59 117 1.0 2.0 0.00 0.00 0.00 90 1015.1
20260906075002 59 116 1.0 2.0 0.00 0.00 0.00 90 1015.1
20260906074513 58 116 1.0 2.0 0.00 0.00 0.00 89 1015.1
20260906074041 59 116 0.0 0.0 0.00 0.00 0.00 89 1015.1
20260906073529 59 116 0.0 0.0 0.00 0.00 0.00 89 1015.0
20260906073036 59 116 0.0 0.0 0.00 0.00 0.00 89 1014.9
20260906072547 59 116 0.0 0.0 0.00 0.00 0.00 89 1014.9
20260906072054 59 116 0.0 0.0 0.00 0.00 0.00 88 1014.8
20260906071502 59 116 0.0 0.0 0.00 0.00 0.00 88 1014.7
20260906071020 59 116 0.0 0.0 0.00 0.00 0.00 88 1014.7
20260906070524 59 116 0.0 0.0 0.00 0.00 0.00 87 1014.7
20260906070028 59 116 0.0 0.0 0.00 0.00 0.00 87 1014.8
20260906065534 59 117 0.0 1.0 0.00 0.00 0.00 87 1014.8
20260906065036 60 117 0.0 2.0 0.00 0.00 0.00 86 1014.9
20260906064538 60 117 1.0 2.0 0.00 0.00 0.00 86 1014.9
20260906064045 60 116 0.0 2.0 0.00 0.00 0.00 85 1014.9
20260906063550 61 116 0.0 1.0 0.00 0.00 0.00 84 1014.9
20260906063056 61 116 0.0 1.0 0.00 0.00 0.00 83 1014.8
20260906062508 61 116 0.0 2.0 0.00 0.00 0.00 82 1014.8
20260906062009 62 116 0.0 2.0 0.00 0.00 0.00 82 1014.8
20260906061534 62 116 0.0 2.0 0.00 0.00 0.00 80 1014.8
20260906061050 63 116 0.0 2.0 0.00 0.00 0.00 80 1014.7
20260906060602 63 117 1.0 3.0 0.00 0.00 0.00 79 1014.8
20260906060003 63 117 1.0 3.0 0.00 0.00 0.00 79 1014.8
20260906055510 63 114 1.0 3.0 0.00 0.00 0.00 79 1014.8
20260906055027 63 115 1.0 3.0 0.00 0.00 0.00 78 1014.8
20260906054533 63 114 1.0 3.0 0.00 0.00 0.00 78 1014.8
20260906054040 63 113 1.0 3.0 0.00 0.00 0.00 78 1014.7
20260906053554 63 113 1.0 3.0 0.00 0.00 0.00 79 1014.8
20260906053107 63 113 1.0 3.0 0.00 0.00 0.00 79 1014.7
20260906052509 63 111 0.0 2.0 0.00 0.00 0.00 79 1014.9
20260906052038 63 111 1.0 3.0 0.00 0.00 0.00 79 1014.9
20260906051540 63 112 1.0 2.0 0.00 0.00 0.00 79 1014.8
20260906051042 63 112 1.0 3.0 0.00 0.00 0.00 79 1014.8
20260906050524 63 112 1.0 3.0 0.00 0.00 0.00 80 1014.8
20260906050004 62 111 1.0 4.0 0.00 0.00 0.00 80 1014.7
20260906045517 62 123 0.0 3.0 0.00 0.00 0.00 81 1014.6
20260906045022 62 123 0.0 2.0 0.00 0.00 0.00 82 1014.7
20260906044533 62 123 0.0 2.0 0.00 0.00 0.00 83 1014.7
20260906044031 62 123 1.0 2.0 0.00 0.00 0.00 83 1014.7
20260906043534 62 123 0.0 1.0 0.00 0.00 0.00 84 1014.7
20260906043003 62 123 0.0 3.0 0.00 0.00 0.00 84 1014.6
20260906042510 62 123 0.0 2.0 0.00 0.00 0.00 84 1014.5
20260906042020 62 123 1.0 2.0 0.00 0.00 0.00 84 1014.6
20260906041518 62 123 0.0 2.0 0.00 0.00 0.00 85 1014.4
20260906041016 62 123 0.0 2.0 0.00 0.00 0.00 85 1014.5
20260906040556 62 123 0.0 2.0 0.00 0.00 0.00 85 1014.4
20260906040041 62 123 0.0 2.0 0.00 0.00 0.00 85 1014.4
20260906035511 62 123 0.0 2.0 0.00 0.00 0.00 85 1014.4
20260906035102 62 123 0.0 2.0 0.00 0.00 0.00 85 1014.4
20260906034509 62 123 0.0 2.0 0.00 0.00 0.00 84 1014.4
20260906034052 62 123 0.0 2.0 0.00 0.00 0.00 84 1014.4
20260906033504 62 123 0.0 2.0 0.00 0.00 0.00 83 1014.3
20260906033009 63 123 0.0 2.0 0.00 0.00 0.00 83 1014.3
20260906032524 63 124 1.0 2.0 0.00 0.00 0.00 82 1014.3
20260906032031 63 122 0.0 3.0 0.00 0.00 0.00 82 1014.3
20260906031547 63 122 1.0 3.0 0.00 0.00 0.00 82 1014.2
20260906031035 63 122 0.0 2.0 0.00 0.00 0.00 81 1014.2
20260906030541 63 122 0.0 2.0 0.00 0.00 0.00 82 1014.3
20260906030031 63 122 0.0 2.0 0.00 0.00 0.00 82 1014.2
20260906025532 63 122 0.0 2.0 0.00 0.00 0.00 82 1014.1
20260906025031 63 122 1.0 4.0 0.00 0.00 0.00 82 1014.0
20260906024537 62 122 1.0 4.0 0.00 0.00 0.00 82 1014.0
20260906024043 62 121 0.0 3.0 0.00 0.00 0.00 83 1014.1
20260906023547 62 115 0.0 2.0 0.00 0.00 0.00 82 1014.0
20260906023055 63 115 0.0 2.0 0.00 0.00 0.00 82 1014.1
20260906022505 63 115 0.0 3.0 0.00 0.00 0.00 82 1014.1
20260906022055 63 117 1.0 4.0 0.00 0.00 0.00 81 1014.1
20260906021541 63 113 1.0 4.0 0.00 0.00 0.00 81 1014.2
20260906021044 63 113 0.0 3.0 0.00 0.00 0.00 82 1014.1
20260906020529 62 113 1.0 3.0 0.00 0.00 0.00 83 1014.1
20260906020043 62 104 0.0 2.0 0.00 0.00 0.00 84 1014.1
20260906015540 62 103 0.0 2.0 0.00 0.00 0.00 84 1014.2
20260906015056 63 103 0.0 2.0 0.00 0.00 0.00 84 1014.2
20260906014509 63 103 0.0 2.0 0.00 0.00 0.00 83 1014.2
20260906014017 63 104 0.0 2.0 0.00 0.00 0.00 82 1014.2
20260906013552 63 104 0.0 2.0 0.00 0.00 0.00 81 1014.1
20260906013001 63 103 0.0 2.0 0.00 0.00 0.00 81 1014.0
20260906012507 63 103 1.0 3.0 0.00 0.00 0.00 81 1014.1
20260906012019 63 103 0.0 3.0 0.00 0.00 0.00 82 1014.0
20260906011525 64 68 0.0 0.0 0.00 0.00 0.00 82 1014.0
20260906011027 64 67 0.0 2.0 0.00 0.00 0.00 82 1013.9
20260906010515 64 67 1.0 2.0 0.00 0.00 0.00 81 1013.9
20260906010023 64 62 0.0 2.0 0.00 0.00 0.00 81 1013.8
20260906005510 64 62 0.0 2.0 0.00 0.00 0.00 81 1013.8
20260906005020 64 62 1.0 2.0 0.00 0.00 0.00 81 1013.9
20260906004506 64 62 0.0 2.0 0.00 0.00 0.00 81 1013.8
20260906004016 64 62 1.0 3.0 0.00 0.00 0.00 81 1013.7
20260906003506 64 62 1.0 3.0 0.00 0.00 0.00 82 1013.6
20260906003025 64 30 0.0 2.0 0.00 0.00 0.00 83 1013.6
20260906002516 65 30 0.0 2.0 0.00 0.00 0.00 83 1013.7
20260906002031 65 30 0.0 2.0 0.00 0.00 0.00 83 1013.6
20260906001540 65 30 0.0 2.0 0.00 0.00 0.00 83 1013.5
20260906001040 65 30 0.0 2.0 0.00 0.00 0.00 82 1013.6
20260906000549 66 30 0.0 1.0 0.00 0.00 0.00 82 1013.5
20260906000101 66 30 0.0 2.0 0.00 0.00 0.00 82 1013.4
20260905235504 67 30 0.0 1.0 0.00 0.00 0.00 81 1013.4
20260905235018 68 30 0.0 1.0 0.00 0.00 0.00 80 1013.4
20260905234517 68 30 0.0 1.0 0.00 0.00 0.00 78 1013.4
20260905234032 69 30 0.0 1.0 0.00 0.00 0.00 76 1013.4
20260905233536 70 30 0.0 2.0 0.00 0.00 0.00 75 1013.5
20260905233042 70 30 0.0 2.0 0.00 0.00 0.00 73 1013.4
20260905232524 71 26 0.0 1.0 0.00 0.00 0.00 72 1013.4
20260905232017 71 26 0.0 1.0 0.00 0.00 0.00 72 1013.4
20260905231516 71 26 0.0 1.0 0.00 0.00 0.00 71 1013.5
20260905231027 72 26 0.0 1.0 0.00 0.00 0.00 71 1013.5
20260905230532 72 26 0.0 1.0 0.00 0.00 0.00 71 1013.5
20260905230022 72 26 0.0 2.0 0.00 0.00 0.00 70 1013.4
20260905225531 72 26 0.0 2.0 0.00 0.00 0.00 70 1013.4
20260905225018 72 26 0.0 2.0 0.00 0.00 0.00 69 1013.5
20260905224519 72 26 0.0 2.0 0.00 0.00 0.00 68 1013.6
20260905224031 72 29 0.0 2.0 0.00 0.00 0.00 68 1013.6
20260905223538 72 29 0.0 3.0 0.00 0.00 0.00 67 1013.7
20260905223046 72 29 1.0 3.0 0.00 0.00 0.00 67 1013.7
20260905222551 72 55 1.0 3.0 0.00 0.00 0.00 67 1013.8
20260905222058 72 57 1.0 4.0 0.00 0.00 0.00 67 1013.8
20260905221519 72 355 1.0 3.0 0.00 0.00 0.00 66 1013.8
20260905221054 72 360 0.0 3.0 0.00 0.00 0.00 66 1013.7
20260905220602 72 360 1.0 4.0 0.00 0.00 0.00 65 1013.8
20260905220502 72 9 1.0 4.0 0.00 0.00 0.00 65 1013.8
20260905220006 72 24 1.0 3.0 0.00 0.00 0.00 66 1013.7
20260905215525 72 9 0.0 4.0 0.00 0.00 0.00 64 1013.6
20260905215030 72 9 1.0 5.0 0.00 0.00 0.00 65 1013.5
20260905214536 72 351 1.0 5.0 0.00 0.00 0.00 65 1013.5
20260905214046 72 340 1.0 5.0 0.00 0.00 0.00 65 1013.4
20260905213550 72 348 2.0 4.0 0.00 0.00 0.00 64 1013.4
20260905213100 72 349 1.0 6.0 0.00 0.00 0.00 64 1013.4
20260905212559 73 333 2.0 3.0 0.00 0.00 0.00 63 1013.3
20260905212102 73 331 1.0 8.0 0.00 0.00 0.00 66 1013.3
20260905211535 73 333 3.0 8.0 0.00 0.00 0.00 65 1013.3
20260905211025 73 329 1.0 6.0 0.00 0.00 0.00 66 1013.3
20260905210527 73 329 2.0 6.0 0.00 0.00 0.00 65 1013.3
20260905210100 72 329 2.0 8.0 0.00 0.00 0.00 66 1013.3
20260905205548 72 326 3.0 9.0 0.00 0.00 0.00 65 1013.3
20260905205032 72 330 3.0 9.0 0.00 0.00 0.00 65 1013.4
20260905204541 73 173 2.0 6.0 0.00 0.00 0.00 66 1013.4
20260905204048 73 54 2.0 9.0 0.00 0.00 0.00 64 1013.4
20260905203554 73 360 0.0 6.0 0.00 0.00 0.00 65 1013.4
20260905203042 73 351 3.0 6.0 0.00 0.00 0.00 63 1013.4
20260905202550 73 346 3.0 6.0 0.00 0.00 0.00 65 1013.3
20260905202058 73 95 2.0 10.0 0.00 0.00 0.00 65 1013.3
20260905201506 73 360 4.0 10.0 0.00 0.00 0.00 63 1013.4
20260905201008 73 332 1.0 4.0 0.00 0.00 0.00 66 1013.4
20260905200551 73 333 2.0 8.0 0.00 0.00 0.00 67 1013.5
20260905200055 72 324 3.0 8.0 0.00 0.00 0.00 66 1013.5
20260905195550 72 301 1.0 9.0 0.00 0.00 0.00 66 1013.5
20260905195036 73 329 4.0 9.0 0.00 0.00 0.00 67 1013.6
20260905194518 73 333 2.0 5.0 0.00 0.00 0.00 69 1013.6
20260905194030 73 360 2.0 5.0 0.00 0.00 0.00 68 1013.6
20260905193537 73 316 1.0 6.0 0.00 0.00 0.00 70 1013.6
20260905193046 72 116 2.0 11.0 0.00 0.00 0.00 71 1013.7
20260905192550 72 15 2.0 11.0 0.00 0.00 0.00 70 1013.7
20260905192042 72 346 4.0 11.0 0.00 0.00 0.00 70 1013.9
20260905191546 72 360 4.0 11.0 0.00 0.00 0.00 69 1013.9
20260905191034 72 317 3.0 6.0 0.00 0.00 0.00 69 1013.8
20260905190542 72 360 2.0 6.0 0.00 0.00 0.00 71 1013.9
20260905190048 72 351 1.0 10.0 0.00 0.00 0.00 71 1014.0
20260905185554 72 360 3.0 10.0 0.00 0.00 0.00 69 1014.2
20260905185102 72 345 1.0 10.0 0.00 0.00 0.00 71 1014.2
20260905184506 72 46 1.0 8.0 0.00 0.00 0.00 71 1014.1
20260905184056 72 360 0.0 8.0 0.00 0.00 0.00 72 1014.0
20260905183504 72 347 2.0 11.0 0.00 0.00 0.00 72 1014.0
20260905183006 72 360 6.0 11.0 0.00 0.00 0.00 70 1014.0